Simultaneous Nadir Overpasses (SNOs) Predictions

Prediction of SNOs between AQUA and METOP-C Satellite Orbit:

Table of predicted SNOs for the next 14.0 days since TLE Epoch: 3/13/2021
Index Date (AQUA) Time (AQUA) Lat,Lon (AQUA) SZA (AQUA ) Date (METOP-C) Time (METOP-C) Lat,Lon (METOP-C) SZA (METOP-C ) Distance(km) Time Diff (sec)
1 03/15/2021 00:03:32 -73.09, -5.14 104.77 03/15/2021 00:02:25 -73.06, -7.64 104.68 81.18 67
2 03/15/2021 00:53:12 73.73, 161.16 75.91 03/15/2021 00:52:51 73.74, 161.23 75.92 2.44 21
3 03/15/2021 01:42:38 -73.76, -31.27 104.07 03/15/2021 01:43:32 -73.78, -31.34 104.06 3.00 54
4 03/17/2021 19:37:51 -73.34, 60.78 105.62 03/17/2021 19:36:41 -73.31, 59.33 105.57 46.40 70
5 03/17/2021 20:27:26 73.72,-132.39 74.78 03/17/2021 20:27:13 73.70,-132.45 74.77 3.31 13
6 03/17/2021 21:16:53 -73.81, 35.07 105.14 03/17/2021 21:17:53 -73.79, 35.09 105.17 1.85 60
7 03/20/2021 15:12:11 -73.60, 126.67 106.46 03/20/2021 15:10:58 -73.57, 126.32 106.46 11.76 73
8 03/20/2021 16:01:41 73.72, -65.95 73.66 03/20/2021 16:01:35 73.71, -66.02 73.65 2.75 6
9 03/20/2021 16:51:08 -73.81, 101.51 106.27 03/20/2021 16:52:15 -73.80, 101.51 106.28 1.07 67
10 03/23/2021 10:46:27 -73.66,-167.01 107.51 03/23/2021 10:45:18 -73.67,-167.04 107.49 1.39 69
11 03/23/2021 11:35:56 73.73, 0.47 72.56 03/23/2021 11:35:57 73.72, 0.40 72.54 2.77 1
12 03/23/2021 12:25:23 -73.81, 167.93 107.38 03/23/2021 12:26:36 -73.85, 168.04 107.36 5.27 73
13 03/26/2021 06:20:41 -73.68,-100.61 108.61 03/26/2021 06:19:39 -73.67,-100.63 108.60 0.67 62
14 03/26/2021 07:10:10 73.75, 66.87 71.46 03/26/2021 07:10:17 73.77, 66.94 71.48 3.15 7



Historial Predications of SNOs between AQUA and METOP-C
